Flag for Romania Weather past 2 weeks in Cluj-Napoca, Romania

Now
50 °F

Passing clouds.


Feels Like: 46 °F
Forecast: 31 / 38 °F
Wind: 12 mph from Northwest

Location: Cluj Airport-Napoca

Current Time: Dec 20, 2014 at 4:00:12 PM

Latest Report: Dec 20, 2014 at 3:30 PM


Visibility: N/A

Pressure: 30.04 "Hg

Humidity: 67%

Dew point: 39 °F

Location of Cluj-NapocaLocation

Historic Weather in Cluj-Napoca — Graph

°F

Cluj-Napoca temperature yesterday

Maximum temperature yesterday: 46 °F (at 2:30 PM)
Minimum temperature yesterday: 36 °F (at 11:00 PM)
Average temperature yesterday: 42 °F

Past Weeks' High & Low Weather Summary

 TemperatureHumidityPressure
High50 °F (Dec 20, 1:30 PM)100% (Dec 5, 5:30 PM)30.27 "Hg (Dec 5, 5:30 PM)
Low27 °F (Dec 6, 7:00 AM)66% (Dec 18, 2:00 PM)29.83 "Hg (Dec 17, 6:00 AM)
Average38 °F97%30.08 "Hg
* Reported Dec 5 3:00 PM — Dec 20 3:00 PM, Cluj-Napoca, Weather by CustomWeather, © 2014

Note: Actual official high and low records may vary slightly from our data, if they occured in-between our weather recording intervals... More about our weather records

Advertising

Cluj-Napoca weather history for previous 24 hours

 ConditionsComfort  
Time TempWeatherWind HumidityBarometerVisibility
3:00 PM
Dec 20
50 °FPassing clouds.12 mph67%30.07 "HgN/A
2:30 PM50 °FPassing clouds.16 mph67%30.04 "HgN/A
2:00 PM50 °FCool.16 mph67%30.04 "HgN/A
1:30 PM50 °FPassing clouds.20 mph67%30.07 "HgN/A
1:00 PM45 °FPassing clouds.7 mph87%30.07 "Hg5 mi
12:30 PM41 °FFog.7 mph100%30.07 "Hg3 mi
12:00 PM39 °FFog.2 mph100%30.07 "Hg3 mi
11:30 AM37 °FFog.No wind100%30.04 "Hg2 mi
11:00 AM37 °FLight rain. Fog.No wind100%30.04 "Hg2 mi
10:30 AM37 °FLight rain. Fog.No wind100%30.04 "Hg1 mi
10:00 AM36 °FLight rain. Fog.No wind100%30.04 "Hg1 mi
9:30 AM36 °FLight rain. Fog.2 mph100%30.04 "Hg1 mi
9:00 AM36 °FLight rain. Fog.5 mph100%30.04 "Hg1 mi
8:30 AM34 °FDrizzle. Fog.2 mph100%30.01 "Hg1 mi
8:00 AM34 °FFog.No wind100%30.01 "Hg1 mi
7:30 AM34 °FFog.No wind100%30.01 "Hg1 mi
7:00 AM34 °FFog.2 mph100%30.01 "Hg1 mi
6:30 AM34 °FFog.No wind100%30.01 "Hg1 mi
6:00 AM34 °FFog.No wind100%30.01 "Hg1 mi
5:30 AM34 °FFog.No wind100%30.01 "Hg1 mi
5:00 AM32 °FFog.No wind100%30.01 "Hg0 mi
4:00 AM32 °FFog.No wind100%30.01 "Hg0 mi
3:00 AM32 °FIce fog.No wind100%30.04 "Hg1 mi
2:00 AM32 °FIce fog.No wind100%30.04 "Hg1 mi
1:00 AM34 °FFog.No wind100%30.04 "Hg1 mi
12:00 AM34 °FFog.No wind100%30.07 "Hg2 mi
11:30 PM
Dec 19
36 °FFog.No wind100%30.07 "Hg2 mi
11:00 PM36 °FFog.No wind100%30.07 "Hg3 mi
10:30 PM37 °FPassing clouds.2 mph100%30.07 "Hg4 mi
10:00 PM39 °FPassing clouds.2 mph100%30.07 "HgN/A
9:30 PM41 °FPassing clouds.2 mph100%30.07 "HgN/A
9:00 PM41 °FPassing clouds.2 mph93%30.07 "HgN/A
8:30 PM41 °FPassing clouds.5 mph93%30.07 "HgN/A
8:00 PM43 °FPassing clouds.5 mph93%30.07 "HgN/A
7:30 PM43 °FPassing clouds.5 mph93%30.07 "HgN/A
7:00 PM43 °FPassing clouds.5 mph93%30.07 "HgN/A
6:30 PM45 °FPassing clouds.5 mph87%30.07 "HgN/A
6:00 PM45 °FPassing clouds.5 mph87%30.09 "HgN/A
5:30 PM45 °FOvercast.5 mph87%30.09 "HgN/A
5:00 PM45 °FOvercast.5 mph87%30.09 "HgN/A
4:30 PM45 °FOvercast.5 mph87%30.09 "HgN/A
4:00 PM46 °FOvercast.7 mph82%30.09 "HgN/A
Weather by CustomWeather, © 2014

See weather overviewHow to use our weather pages